Lemoore (Abandoned) Willett A, CO

10:32 PM MDT on March 24, 2017 (GMT -0600)
Lemoore (Abandoned) Willett A

Weather History for KLMO - January, 2014

Change the Weather History Date:

Monday, January 20, 2014

  Actual Average (KBJC) Record (KBJC)
Temperature  
Mean Temperature 38 °F -  
Max Temperature 53 °F 44 °F 73 °F (2005)
Min Temperature 24 °F 25 °F 2 °F (1985)
Degree Days  
Heating Degree Days 26    
Moisture  
Dew Point 16 °F    
Average Humidity 40    
Maximum Humidity 74    
Minimum Humidity 18    
Precipitation  
Precipitation 0.00 in - - ()
Sea Level Pressure  
Sea Level Pressure 30.25 in    
Wind  
Wind Speed 5 mph (SSW)    
Max Wind Speed 12 mph    
Max Gust Speed 22 mph    
Visibility 10 miles    
Events      
Averages and records for this station are not official NWS values.
T = Trace of Precipitation, MM = Missing Value Source: NWS Daily Summary

Daily Weather History Graph

Daily Weather History Graph

Search for Another Location

Airport or City:

Trip Planner

Search our weather history database for the weather conditions in past years. The results will help you decide how hot, cold, wet, or windy it might be!

Date:

Astronomy

Jan. 20, 2014 Rise Set
Actual Time 7:18 AM MST 5:05 PM MST
Civil Twilight 6:49 AM MST 5:34 PM MST
Nautical Twilight 6:15 AM MST 6:07 PM MST
Astronomical Twilight 5:43 AM MST 6:40 PM MST
Moon 9:42 PM MST (1/20) 9:19 AM MST (1/20)
Length of Visible Light 10h 45m
Length of Day
9h 46m
Waning Gibbous, 82% of the Moon is Illuminated
Jan 20
Waning Gibbous
Jan 23
Last Quarter
Jan 30
New
Feb 6
First Quarter
Feb 14
Full

Hourly Weather History & Observations

Time (MST) Temp. Windchill Dew Point Humidity Pressure Visibility Wind Dir Wind Speed Gust Speed Precip Events Conditions
12:12 AM 48.2 °F - 5.9 °F 18% 29.98 in 10.0 mi WNW 8.1 mph - N/A   Clear
12:32 AM 47.3 °F - 8.2 °F 20% 29.99 in 10.0 mi West 10.4 mph - N/A   Clear
12:52 AM 44.1 °F - 9.5 °F 24% 30.00 in 10.0 mi Calm Calm - N/A   Clear
1:12 AM 46.4 °F 45.2 °F 8.1 °F 21% 30.01 in 10.0 mi SE 3.5 mph - N/A   Clear
1:32 AM 44.2 °F - 8.4 °F 23% 30.01 in 10.0 mi Calm Calm - N/A   Clear
1:52 AM 41.5 °F - 9.5 °F 27% 30.02 in 10.0 mi Calm Calm - N/A   Clear
2:12 AM 42.8 °F 38.6 °F 8.8 °F 25% 30.04 in 10.0 mi West 6.9 mph - N/A   Clear
2:32 AM 46.2 °F 42.7 °F 9.1 °F 22% 30.05 in 10.0 mi West 6.9 mph - N/A   Clear
2:52 AM 43.7 °F 38.1 °F 11.7 °F 27% 30.05 in 10.0 mi West 10.4 mph - N/A   Clear
3:12 AM 45.7 °F 41.5 °F 10.8 °F 24% 30.06 in 10.0 mi West 8.1 mph - N/A   Clear
3:32 AM 47.3 °F - 10.8 °F 23% 30.06 in 10.0 mi SW 8.1 mph - N/A   Clear
3:52 AM 39.9 °F 37.8 °F 12.6 °F 33% 30.06 in 10.0 mi West 3.5 mph - N/A   Clear
4:12 AM 40.1 °F 34.7 °F 11.5 °F 31% 30.08 in 10.0 mi NNE 8.1 mph - N/A   Clear
4:32 AM 41.2 °F 37.3 °F 12.7 °F 31% 30.09 in 10.0 mi North 5.8 mph - N/A   Clear
4:52 AM 37.4 °F - 12.7 °F 36% 30.10 in 10.0 mi Calm Calm - N/A   Clear
5:12 AM 39.7 °F 37.6 °F 12.7 °F 33% 30.11 in 10.0 mi SW 3.5 mph - N/A   Clear
5:32 AM 37.2 °F - 12.9 °F 37% 30.12 in 10.0 mi Calm Calm - N/A   Clear
5:52 AM 36.5 °F 32.7 °F 14.0 °F 40% 30.13 in 10.0 mi WSW 4.6 mph - N/A   Clear
6:12 AM 34.0 °F 25.5 °F 16.9 °F 50% 30.17 in 10.0 mi ENE 11.5 mph - N/A   Clear
6:32 AM 40.5 °F 33.6 °F 13.5 °F 33% 30.19 in 10.0 mi NE 11.5 mph 21.9 mph N/A   Clear
6:52 AM 38.7 °F 34.3 °F 13.8 °F 36% 30.20 in 10.0 mi NE 5.8 mph - N/A   Clear
7:12 AM 37.4 °F - 14.5 °F 39% 30.22 in 10.0 mi Calm Calm - N/A   Clear
7:32 AM 37.6 °F 35.1 °F 14.0 °F 38% 30.24 in 10.0 mi East 3.5 mph - N/A   Clear
7:52 AM 37.6 °F 32.3 °F 14.2 °F 38% 30.27 in 10.0 mi WSW 6.9 mph - N/A   Clear
8:12 AM 39.6 °F - 15.1 °F 37% 30.28 in 10.0 mi Calm Calm - N/A   Clear
8:32 AM 41.4 °F - 16.7 °F 37% 30.30 in 10.0 mi Calm Calm - N/A   Clear
8:52 AM 41.4 °F 36.2 °F 19.4 °F 41% 30.31 in 10.0 mi ENE 8.1 mph - N/A   Clear
9:12 AM 41.5 °F 36.4 °F 20.1 °F 42% 30.32 in 10.0 mi NE 8.1 mph - N/A   Clear
9:32 AM 41.4 °F 37.6 °F 20.1 °F 43% 30.32 in 10.0 mi East 5.8 mph - N/A   Clear
9:52 AM 43.5 °F 41.9 °F 19.2 °F 38% 30.32 in 10.0 mi SSE 3.5 mph - N/A   Clear
10:12 AM 43.5 °F 38.9 °F 18.7 °F 37% 30.32 in 10.0 mi SSE 8.1 mph - N/A   Clear
10:32 AM 43.9 °F 39.3 °F 19.0 °F 37% 30.32 in 10.0 mi SSE 8.1 mph - N/A   Clear
10:52 AM 44.4 °F 39.5 °F 18.3 °F 35% 30.32 in 10.0 mi South 9.2 mph - N/A   Clear
11:12 AM 45.0 °F 40.6 °F 18.5 °F 35% 30.32 in 10.0 mi SSE 8.1 mph - N/A   Clear
11:32 AM 46.4 °F 42.9 °F 18.1 °F 32% 30.31 in 10.0 mi SE 6.9 mph - N/A   Clear
11:52 AM 47.3 °F - 18.3 °F 32% 30.31 in 10.0 mi South 8.1 mph - N/A   Clear
12:12 PM 48.2 °F - 18.0 °F 30% 30.30 in 10.0 mi South 8.1 mph - N/A   Clear
12:32 PM 49.3 °F - 18.0 °F 29% 30.29 in 10.0 mi SSW 6.9 mph - N/A   Clear
12:52 PM 50.2 °F - 18.0 °F 28% 30.29 in 10.0 mi ESE 6.9 mph - N/A   Clear
1:12 PM 50.0 °F - 17.6 °F 28% 30.28 in 10.0 mi ESE 4.6 mph - N/A   Clear
1:32 PM 51.3 °F - 17.4 °F 26% 30.28 in 10.0 mi Calm Calm - N/A   Clear
1:52 PM 52.0 °F - 17.6 °F 26% 30.28 in 10.0 mi South 3.5 mph - N/A   Clear
2:12 PM 52.7 °F - 16.7 °F 24% 30.28 in 10.0 mi SSW 3.5 mph - N/A   Clear
2:32 PM 53.1 °F - 17.1 °F 24% 30.29 in 10.0 mi South 3.5 mph - N/A   Clear
2:52 PM 52.7 °F - 17.4 °F 25% 30.30 in 10.0 mi SE 4.6 mph - N/A   Clear
3:12 PM 52.2 °F - 16.5 °F 24% 30.32 in 10.0 mi Calm Calm - N/A   Clear
3:32 PM 52.0 °F - 15.6 °F 24% 30.32 in 10.0 mi SE 3.5 mph - N/A   Clear
3:52 PM 51.1 °F - 16.0 °F 25% 30.33 in 10.0 mi SE 4.6 mph - N/A   Clear
4:12 PM 50.2 °F - 15.6 °F 25% 30.33 in 10.0 mi SSE 4.6 mph - N/A   Clear
4:32 PM 48.9 °F - 15.8 °F 27% 30.33 in 10.0 mi South 3.5 mph - N/A   Clear
4:52 PM 46.9 °F - 16.2 °F 29% 30.34 in 10.0 mi SSE 4.6 mph - N/A   Clear
5:12 PM 45.0 °F - 16.3 °F 32% 30.34 in 10.0 mi Calm Calm - N/A   Clear
5:32 PM 41.5 °F 39.6 °F 16.2 °F 36% 30.35 in 10.0 mi South 3.5 mph - N/A   Clear
5:52 PM 34.5 °F 30.4 °F 17.8 °F 50% 30.35 in 10.0 mi WNW 4.6 mph - N/A   Clear
6:12 PM 29.1 °F 24.1 °F 17.8 °F 63% 30.36 in 10.0 mi West 4.6 mph - N/A   Clear
6:32 PM 31.1 °F 26.4 °F 18.5 °F 60% 30.35 in 10.0 mi WSW 4.6 mph - N/A   Clear
6:52 PM 29.7 °F - 18.3 °F 63% 30.35 in 10.0 mi Calm Calm - N/A   Clear
7:12 PM 27.5 °F 23.6 °F 17.4 °F 66% 30.35 in 10.0 mi NW 3.5 mph - N/A   Clear
7:32 PM 29.3 °F - 17.8 °F 62% 30.36 in 10.0 mi Calm Calm - N/A   Clear
7:52 PM 28.2 °F 24.4 °F 17.6 °F 64% 30.36 in 10.0 mi West 3.5 mph - N/A   Clear
8:12 PM 30.2 °F 25.4 °F 18.5 °F 62% 30.35 in 10.0 mi West 4.6 mph - N/A   Clear
8:32 PM 28.9 °F 22.8 °F 18.5 °F 65% 30.36 in 10.0 mi West 5.8 mph - N/A   Clear
8:52 PM 29.1 °F 24.1 °F 17.6 °F 62% 30.35 in 10.0 mi WNW 4.6 mph - N/A   Clear
9:12 PM 24.6 °F 20.3 °F 16.7 °F 72% 30.36 in 10.0 mi East 3.5 mph - N/A   Clear
9:32 PM 27.5 °F - 19.8 °F 73% 30.36 in 10.0 mi Calm Calm - N/A   Clear
9:52 PM 26.2 °F 22.1 °F 18.1 °F 71% 30.37 in 10.0 mi NW 3.5 mph - N/A   Clear
10:12 PM 26.4 °F 20.9 °F 17.6 °F 69% 30.38 in 10.0 mi NNW 4.6 mph - N/A   Clear
10:32 PM 25.2 °F 19.5 °F 17.8 °F 74% 30.38 in 10.0 mi NNE 4.6 mph - N/A   Clear
10:52 PM 30.2 °F - 18.3 °F 61% 30.38 in 10.0 mi Calm Calm - N/A   Clear
11:12 PM 25.5 °F 19.9 °F 15.8 °F 67% 30.37 in 10.0 mi NNW 4.6 mph - N/A   Clear
11:32 PM 25.5 °F 21.3 °F 16.3 °F 68% 30.36 in 10.0 mi North 3.5 mph - N/A   Clear
11:52 PM 24.4 °F 18.6 °F 16.3 °F 71% 30.35 in 10.0 mi NW 4.6 mph - N/A   Clear